Weather History for Montague, CA

Change the Weather History Date:

Saturday, April 5, 2014

  Actual Average Record
Temperature  
Mean Temperature 47 °F 44 °F  
Max Temperature 60 °F 58 °F 79 °F (1985)
Min Temperature 34 °F 31 °F 15 °F (2001)
Degree Days  
Heating Degree Days 18 21  
Month to date heating degree days 103 105  
Since 1 July heating degree days 4713 4664  
Cooling Degree Days 0 0  
Month to date cooling degree days 0 0  
Year to date cooling degree days 0 0  
Moisture  
Dew Point 38 °F    
Average Humidity 72    
Maximum Humidity 100    
Minimum Humidity 46    
Precipitation  
Precipitation 0.00 in 0.04 in 0.37 in (1969)
Month to date precipitation 0.12 0.19  
Year to date precipitation 4.87 6.71  
Sea Level Pressure  
Sea Level Pressure 30.19 in    
Wind  
Wind Speed 3 mph (NNW)    
Max Wind Speed 13 mph    
Max Gust Speed 17 mph    
Visibility 10 miles    
Events      
T = Trace of Precipitation, MM = Missing Value Source: NWS Daily Summary

Daily Weather History Graph

Daily Weather History Graph

Search for Another Location

Airport:

Trip Planner

Search our weather history database for the weather conditions in past years. The results will help you decide how hot, cold, wet, or windy it might be!

Date:

Astronomy

Apr. 05, 2014 Rise Set
Actual Time 6:45 AM PDT 7:39 PM PDT
Civil Twilight 6:17 AM PDT 8:08 PM PDT
Nautical Twilight 5:43 AM PDT 8:41 PM PDT
Astronomical Twilight 5:09 AM PDT 9:16 PM PDT
Moon 10:55 AM PDT (4/5) 12:57 AM PDT (4/5)
Length of Visible Light 13h 50m
Length of Day
12h 54m
Waxing Crescent, 35% of the Moon is Illuminated
Apr 5
Waxing Crescent
Apr 7
First Quarter
Apr 15
Full
Apr 22
Last Quarter
Apr 28
New

Hourly Weather History & Observations

Time (PDT) Temp. Windchill Dew Point Humidity Pressure Visibility Wind Dir Wind Speed Gust Speed Precip Events Conditions
12:53 AM 35.1 °F 31.0 °F 33.1 °F 92% 30.10 in 10.0 mi East 4.6 mph - N/A   Mostly Cloudy
1:53 AM 35.1 °F - 33.1 °F 92% 30.12 in 10.0 mi Calm Calm - N/A   Clear
2:53 AM 37.0 °F - 36.0 °F 96% 30.12 in 10.0 mi Calm Calm - N/A   Overcast
3:53 AM 37.9 °F - 36.0 °F 93% 30.11 in 10.0 mi Calm Calm - N/A   Overcast
4:53 AM 37.9 °F - 36.0 °F 93% 30.12 in 10.0 mi Calm Calm - N/A   Overcast
5:53 AM 35.1 °F 32.2 °F 34.0 °F 96% 30.14 in 10.0 mi SE 3.5 mph - N/A   Overcast
6:53 AM 36.0 °F - 34.0 °F 93% 30.16 in 10.0 mi Calm Calm - N/A   Overcast
7:53 AM 37.9 °F - 37.0 °F 97% 30.18 in 10.0 mi Calm Calm - N/A   Overcast
8:53 AM 39.9 °F - 37.9 °F 93% 30.20 in 10.0 mi Calm Calm - N/A   Partly Cloudy
9:53 AM 45.0 °F - 39.9 °F 82% 30.20 in 10.0 mi Calm Calm - N/A   Mostly Cloudy
10:53 AM 48.9 °F - 39.0 °F 69% 30.21 in 10.0 mi Calm Calm - N/A   Mostly Cloudy
11:53 AM 52.0 °F - 37.0 °F 57% 30.21 in 10.0 mi Variable 3.5 mph - N/A   Overcast
12:53 PM 55.0 °F - 37.9 °F 53% 30.20 in 10.0 mi North 3.5 mph - N/A   Partly Cloudy
1:53 PM 57.0 °F - 39.0 °F 51% 30.19 in 10.0 mi WSW 5.8 mph - N/A   Mostly Cloudy
2:53 PM 57.0 °F - 39.0 °F 51% 30.18 in 10.0 mi Calm Calm - N/A   Overcast
3:53 PM 57.9 °F - 37.9 °F 47% 30.18 in 10.0 mi North - - N/A   Mostly Cloudy
4:53 PM 60.1 °F - 39.0 °F 46% 30.18 in 10.0 mi NW 9.2 mph - N/A   Partly Cloudy
5:53 PM 57.9 °F - 37.9 °F 47% 30.20 in 10.0 mi NW 8.1 mph - N/A   Partly Cloudy
6:53 PM 55.9 °F - 39.0 °F 53% 30.21 in 10.0 mi NW 9.2 mph - N/A   Mostly Cloudy
7:53 PM 54.0 °F - 39.0 °F 57% 30.22 in 10.0 mi NW 11.5 mph - N/A   Mostly Cloudy
8:53 PM 53.1 °F - 39.9 °F 61% 30.25 in 10.0 mi NNW 6.9 mph - N/A   Overcast
9:53 PM 53.1 °F - 39.9 °F 61% 30.25 in 10.0 mi NNW 6.9 mph - N/A   Overcast
10:53 PM 52.0 °F - 41.0 °F 66% 30.27 in 10.0 mi Calm Calm - N/A   Overcast
11:53 PM 51.1 °F - 42.1 °F 71% 30.27 in 10.0 mi Calm Calm - N/A   Overcast